Weather reports worldwide

Advertisment
Oviedo, Spain (8015): temperature & dewpoint: 20.09.2018 17:00:00 - 26.09.2018 17:00:00 (CEST)Oviedo, Spain (8015): wind speed: 20.09.2018 17:00:00 - 26.09.2018 17:00:00 (CEST)Oviedo, Spain (8015): wind direction: 20.09.2018 17:00:00 - 26.09.2018 17:00:00 (CEST)Oviedo, Spain (8015): reduced air pressure: 20.09.2018 17:00:00 - 26.09.2018 17:00:00 (CEST)Oviedo, Spain (8015): visibility: 20.09.2018 17:00:00 - 26.09.2018 17:00:00 (CEST)Oviedo, Spain (8015): precipitation: 20.09.2018 17:00:00 - 26.09.2018 17:00:00 (CEST)
Date & Time tt [°C] td [°C] ff [km/h] ff [kn] dd ppp [hPa] vv [km] rr [mm]
26.09.2018 17:00:00 24,2 11,8 4 2 ENE 1022,5 20 -
26.09.2018 16:00:00 23,4 14,7 4 2 W 1022,6 20 0,0
26.09.2018 15:00:00 21,4 14,5 5 3 W 1023,1 19 0,0
26.09.2018 14:00:00 18,9 14,0 4 2 WNW 1023,7 20 -
26.09.2018 13:00:00 16,7 13,6 2 1 W 1024,5 17 0,0
26.09.2018 12:00:00 13,7 12,1 4 2 NW 1025,2 12 0,0
26.09.2018 11:00:00 12,4 12,1 4 2 SSW 1025,5 11 -
26.09.2018 10:00:00 10,8 10,8 4 2 S 1025,5 1,2 0,0
26.09.2018 09:00:00 10,1 10,1 2 1 SE 1025,6 0,1 0,0
26.09.2018 08:00:00 10,2 10,2 8 4 S 1025,1 0,2 -
26.09.2018 07:00:00 10,1 9,9 8 4 S 1024,9 0,7 0,0
26.09.2018 06:00:00 10,1 9,8 0 0 N 1024,8 6 0,0
26.09.2018 05:00:00 10,4 10,1 5 3 ESE 1024,9 7 -
26.09.2018 04:00:00 10,8 10,5 4 2 SSE 1025,3 8 0,0
26.09.2018 03:00:00 10,7 10,1 4 2 SSE 1026,0 16 0,0
26.09.2018 02:00:00 11,0 10,1 5 3 SSE 1026,7 8 -
26.09.2018 01:00:00 11,6 10,0 8 4 E 1026,9 20 0,0
26.09.2018 00:00:00 12,1 10,2 11 6 E 1027,1 20 0,0
25.09.2018 23:00:00 12,7 10,2 8 4 E 1027,1 20 -
25.09.2018 22:00:00 13,4 10,4 5 3 E 1027,0 20 0,0
25.09.2018 21:00:00 14,1 10,3 5 3 ENE 1026,6 20 0,0
25.09.2018 20:00:00 15,0 11,0 9 5 ENE 1026,1 20 -
25.09.2018 19:00:00 16,2 10,9 18 10 NE 1025,7 20 0,0
25.09.2018 18:00:00 17,7 10,8 18 10 NE 1025,5 20 0,0
25.09.2018 17:00:00 18,6 10,9 13 7 ENE 1025,6 20 -
25.09.2018 16:00:00 19,0 10,0 11 6 E 1025,8 20 0,0
25.09.2018 15:00:00 19,1 9,8 9 5 E 1026,5 20 0,0
25.09.2018 14:00:00 18,9 9,7 11 6 E 1027,1 20 -
25.09.2018 13:00:00 18,0 10,1 13 7 E 1027,6 20 0,0
25.09.2018 12:00:00 16,3 9,9 11 6 E 1028,2 20 0,0
25.09.2018 11:00:00 13,2 10,4 5 3 E 1028,7 20 -
25.09.2018 10:00:00 10,2 9,6 5 3 SE 1029,1 19 0,0
25.09.2018 09:00:00 9,2 8,6 8 4 SE 1028,9 18 0,0
25.09.2018 08:00:00 9,0 7,8 5 3 SE 1028,6 20 -
25.09.2018 07:00:00 9,1 7,9 8 4 E 1028,7 20 0,0
25.09.2018 06:00:00 9,2 8,0 5 3 E 1029,0 20 0,0
25.09.2018 05:00:00 9,5 8,1 8 4 ESE 1029,4 20 -
25.09.2018 04:00:00 9,9 8,3 8 4 E 1029,9 20 0,0
25.09.2018 03:00:00 10,5 8,6 9 5 E 1030,0 20 0,0
25.09.2018 02:00:00 11,0 8,7 9 5 E 1030,2 20 -
25.09.2018 01:00:00 11,8 8,8 11 6 E 1030,7 20 0,0
25.09.2018 00:00:00 12,6 8,9 9 5 E 1030,7 20 0,0
24.09.2018 23:00:00 13,3 9,7 9 5 ENE 1030,5 20 -
24.09.2018 22:00:00 13,6 10,8 8 4 E 1029,9 20 0,0
24.09.2018 21:00:00 13,8 11,3 13 7 E 1029,7 20 0,0
24.09.2018 20:00:00 14,1 11,4 13 7 E 1029,6 20 -
24.09.2018 19:00:00 14,4 11,5 15 8 E 1029,6 20 0,0
24.09.2018 18:00:00 14,8 11,9 15 8 E 1029,5 20 0,0
24.09.2018 17:00:00 15,4 12,3 15 8 E 1029,7 15 -
24.09.2018 16:00:00 16,0 12,7 15 8 E 1029,9 20 0,0
24.09.2018 15:00:00 16,3 13,2 13 7 E 1030,1 20 0,0
24.09.2018 14:00:00 16,4 13,7 11 6 E 1030,5 15 -
24.09.2018 13:00:00 15,9 13,6 16 9 E 1031,1 20 0,0
24.09.2018 12:00:00 14,9 14,1 11 6 ENE 1031,6 19 0,0
24.09.2018 11:00:00 14,4 14,1 11 6 ENE 1031,5 3,0 -
24.09.2018 10:00:00 14,2 14,2 11 6 ENE 1031,0 9 0,2
24.09.2018 09:00:00 14,4 14,4 15 8 ENE 1030,3 3,2 0,2
24.09.2018 08:00:00 14,7 14,7 16 9 ENE 1029,8 6 -
24.09.2018 07:00:00 15,0 15,0 18 10 NE 1029,3 3,4 2,0
24.09.2018 06:00:00 16,0 16,0 8 4 NE 1029,1 2,6 1,0
24.09.2018 05:00:00 15,9 15,9 4 2 E 1029,2 5 -
24.09.2018 04:00:00 15,9 15,9 9 5 NE 1029,3 - 0,4
24.09.2018 03:00:00 16,2 16,0 18 10 NE 1029,1 8 0,2
24.09.2018 02:00:00 17,2 17,0 13 7 NE 1028,9 10 -
24.09.2018 01:00:00 17,5 17,3 13 7 NE 1028,6 8 0,6
24.09.2018 00:00:00 18,5 18,3 4 2 NW 1028,3 0,3 0,2
23.09.2018 23:00:00 19,2 18,4 4 2 NW 1028,1 10 -
23.09.2018 22:00:00 19,7 18,4 2 1 S 1027,9 3,6 0,2
23.09.2018 21:00:00 20,1 18,2 8 4 NNE 1027,4 20 0,0
23.09.2018 20:00:00 20,7 18,3 8 4 E 1026,7 20 -
23.09.2018 19:00:00 21,5 18,5 5 3 N 1026,0 20 0,0
23.09.2018 18:00:00 21,9 18,3 8 4 ENE 1025,5 20 0,0
23.09.2018 17:00:00 22,7 18,2 13 7 NE 1025,1 20 -
23.09.2018 16:00:00 24,2 17,4 8 4 E 1025,0 20 0,0
23.09.2018 15:00:00 22,5 17,8 8 4 E 1025,2 18 0,0
23.09.2018 14:00:00 22,8 18,8 9 5 ENE 1025,0 16 -
23.09.2018 13:00:00 21,9 18,5 5 3 N 1024,5 19 0,0
23.09.2018 12:00:00 19,7 18,7 4 2 SSE 1024,6 12 0,0
23.09.2018 11:00:00 17,3 17,3 2 1 WNW 1024,9 0,3 -
23.09.2018 10:00:00 16,8 16,8 2 1 WNW 1024,6 0,1 0,0
23.09.2018 09:00:00 16,7 16,7 0 0 N 1024,2 0,1 0,0
23.09.2018 08:00:00 16,7 16,7 2 1 SSE 1023,9 0,1 -
23.09.2018 07:00:00 16,9 16,9 4 2 S 1023,9 0,1 0,0
23.09.2018 06:00:00 17,1 17,1 2 1 SSW 1023,9 0,1 0,0
23.09.2018 05:00:00 17,0 17,0 2 1 S 1024,0 0,1 -
23.09.2018 04:00:00 17,1 17,1 4 2 S 1024,4 0,1 0,0
23.09.2018 03:00:00 17,1 17,1 2 1 SSW 1025,1 0,1 0,0
23.09.2018 02:00:00 17,2 17,0 2 1 NNW 1025,1 0,1 -
23.09.2018 01:00:00 17,5 17,2 2 1 NE 1025,3 0,7 0,0
23.09.2018 00:00:00 17,7 17,2 5 3 ENE 1025,3 2,9 0,0
22.09.2018 23:00:00 18,0 17,2 8 4 E 1025,1 4,0 -
22.09.2018 22:00:00 18,9 17,4 9 5 E 1024,7 12 0,0
22.09.2018 21:00:00 19,8 17,6 11 6 E 1024,0 15 0,0
22.09.2018 20:00:00 21,5 17,7 8 4 ENE 1023,4 20 -
22.09.2018 19:00:00 23,1 17,3 8 4 ENE 1022,8 20 0,0
22.09.2018 18:00:00 24,0 17,3 8 4 ENE 1022,5 20 0,0
22.09.2018 17:00:00 24,7 17,4 11 6 ENE 1022,5 20 -
22.09.2018 16:00:00 25,6 17,8 13 7 ENE 1022,3 20 0,0
22.09.2018 15:00:00 26,1 18,0 9 5 ENE 1022,4 20 0,0
22.09.2018 14:00:00 26,5 17,6 5 3 N 1022,5 20 -
22.09.2018 13:00:00 24,6 17,1 4 2 WNW 1022,9 20 0,0
22.09.2018 12:00:00 22,6 17,1 2 1 SSE 1023,1 20 0,0
22.09.2018 11:00:00 18,7 17,0 4 2 S 1023,4 20 -
22.09.2018 10:00:00 16,3 16,1 5 3 S 1023,3 15 0,0
22.09.2018 09:00:00 15,5 15,5 8 4 SSE 1023,2 7 0,0
22.09.2018 08:00:00 15,2 15,2 8 4 S 1023,0 10 -
22.09.2018 07:00:00 14,6 14,6 8 4 S 1022,7 1,8 0,2
22.09.2018 06:00:00 15,1 14,8 4 2 WNW 1022,3 1,2 0,0
22.09.2018 05:00:00 15,7 15,7 4 2 SSE 1022,5 6 -
22.09.2018 04:00:00 16,0 16,0 5 3 SE 1022,8 3,2 0,0
22.09.2018 03:00:00 15,9 15,9 2 1 S 1023,6 0,2 0,0
22.09.2018 02:00:00 15,5 15,5 4 2 WNW 1024,0 0,1 -
22.09.2018 01:00:00 15,7 15,7 5 3 NW 1023,8 0,1 0,0
22.09.2018 00:00:00 15,9 15,7 2 1 W 1023,9 0,2 0,0
21.09.2018 23:00:00 16,1 15,8 4 2 ESE 1023,9 3,0 -
21.09.2018 22:00:00 16,0 15,4 5 3 NNE 1024,3 4,0 0,0
21.09.2018 21:00:00 16,4 15,3 9 5 NE 1023,7 10 0,0
21.09.2018 20:00:00 16,8 15,7 8 4 NE 1023,3 10 -
21.09.2018 19:00:00 16,8 16,0 8 4 ENE 1022,9 - 0,0
21.09.2018 18:00:00 17,6 16,1 11 6 ENE 1022,9 - 0,0
21.09.2018 17:00:00 19,4 16,8 9 5 ENE 1022,4 12 -
21.09.2018 16:00:00 19,3 16,5 11 6 NE 1022,3 17 0,0
21.09.2018 15:00:00 19,1 16,3 9 5 ENE 1022,3 16 0,0
21.09.2018 14:00:00 19,7 16,7 8 4 E 1021,9 20 -
21.09.2018 13:00:00 19,0 16,0 8 4 ENE 1021,9 19 0,0
21.09.2018 12:00:00 18,3 14,8 9 5 E 1021,8 17 0,0
21.09.2018 11:00:00 17,4 14,5 8 4 S 1021,3 20 -
21.09.2018 10:00:00 16,8 14,4 8 4 S 1020,7 19 0,0
21.09.2018 09:00:00 15,4 13,9 9 5 S 1020,3 18 0,0
21.09.2018 08:00:00 15,3 14,3 4 2 S 1019,5 15 -
21.09.2018 07:00:00 15,3 14,7 11 6 S 1018,9 10 0,0
21.09.2018 06:00:00 15,5 14,9 9 5 S 1018,2 6 0,0
21.09.2018 05:00:00 15,6 15,1 4 2 S 1018,3 8 -
21.09.2018 04:00:00 15,6 15,0 9 5 S 1018,2 6 0,0
21.09.2018 03:00:00 15,7 14,9 8 4 SSE 1018,1 - 0,0
21.09.2018 02:00:00 16,1 15,1 8 4 S 1018,4 10 -
21.09.2018 01:00:00 15,8 14,8 8 4 S 1018,6 10 0,0
21.09.2018 00:00:00 16,0 14,7 4 2 S 1018,7 12 0,0
20.09.2018 23:00:00 16,1 14,8 4 2 SE 1018,9 8 -
20.09.2018 22:00:00 16,7 15,1 4 2 SE 1019,3 9 0,0
20.09.2018 21:00:00 18,0 14,7 11 6 E 1018,5 17 0,0
20.09.2018 20:00:00 20,7 15,9 4 2 E 1017,7 10 -
20.09.2018 19:00:00 21,9 16,0 8 4 ENE 1017,0 19 0,0
20.09.2018 18:00:00 22,6 15,9 9 5 ENE 1016,8 19 0,0
20.09.2018 17:00:00 23,2 15,8 9 5 ENE 1017,0 10 -

tt = temperature
td = dewpoint
ff = wind speed
dd = wind direction
ppp = reduced air pressure
vv = visibility
rr = precipitation

Next stations